Погода в Саффолке

США     36°43′39″N   76°34′58″W
темп.,
°C
ветер,
м/с
пор.,
м/с
влажн.,
%
обл.,
%
осадки,
мм/ч
давл.,
гПа
погр.,
м
20 апреля, вт
вт2023:00+9с11900 0.0 101511
02:00+8з22880 0.0 101517
05:00+8зюз23930 0.0 101649
08:00+11зюз128448 0.0 1017112
11:00+19юз2246100 0.0 1018690
14:00+22зюз233389 0.0 10171879
17:00+22юз353313 0.0 10162252
20:00+15ююв410735 0.0 1016259
21 апреля, ср
ср2123:00+14ю513760 0.0 1016495
02:00+12ю3128870 0.0 1015340
05:00+11ю31090100 0.0 1013247
08:00+13ююз3108572 0.1 1011337
11:00+20юз6115977 0.0 10091146
14:00+24зюз81436100 0.1 10053231
17:00+14зсз7125754 0.3 1008995
20:00+12зсз511472 0.3 1011870
22 апреля, чт
чт2223:00+8сз51052100 0.0 1016928
02:00+6зсз511550 0.0 10181046
05:00+3зсз39610 0.0 1019532
08:00+4зсз48521 0.0 1021521
11:00+10зсз59373 0.0 10201827
14:00+13зсз61127100 0.0 10193016
17:00+14зсз6102796 0.0 10183178
20:00+9зюз374821 0.0 1020178
23 апреля, пт
пт2323:00+7зсз245866 0.0 102174
02:00+5сз26645 0.0 1022128
05:00+4зсз24700 0.0 102295
08:00+7зсз35600 0.0 1024215
11:00+13з46381 0.0 10241414
14:00+17з45295 0.0 10221829
17:00+17зюз452998 0.0 10201970
20:00+12зюз235020 0.0 102143
24 апреля, сб
сб2423:00+9юз22612 0.0 102138
02:00+8ю23635 0.0 102055
05:00+8юз2271100 0.0 102136
08:00+11юз126299 0.0 102190
11:00+18ююз2445100 0.0 1020850
14:00+20ююз4642100 0.0 10191985
17:00+19юз3656100 0.0 10171420
20:00+14ю2497100 2.5 1016206